When you browse on this site, cookies collect data to enhance your experience and personalize the content and advertising you see.
Visit our Privacy Policy to learn more. By continuing to use the site, you agree to this use of cookies and data.
  • In Sweden
  • List of Countries
  • For 7 days
  • Water Temperature
  • Satellite Maps
  • Weather Map
  • Weather Widgets
  • user-avatar
    Login

    Hourly Weather Palkino

    Today, 24 April, Wednesday

    Time Temperature Precipitation Wind Pressure Humidity
    00:00 +11°C° 0 mm 1 mps 751 mmHg 52%
    01:00 +11°C° 0 mm 1 mps 751 mmHg 53%
    02:00 +11°C° 0 mm 1 mps 751 mmHg 55%
    03:00 +10°C° 0 mm 1 mps 751 mmHg 56%
    04:00 +10°C° 0 mm 1 mps 751 mmHg 57%
    05:00 +9°C° 0 mm 0 mps 751 mmHg 58%
    06:00 +11°C° 0 mm 0 mps 752 mmHg 54%
    07:00 +13°C° 0 mm 0 mps 752 mmHg 50%
    08:00 +15°C° 0 mm 0 mps 752 mmHg 46%
    09:00 +16°C° 0 mm 0 mps 752 mmHg 43%
    10:00 +18°C° 0 mm 0 mps 752 mmHg 39%
    11:00 +20°C° 0 mm 0 mps 752 mmHg 36%
    12:00 +20°C° 0 mm 0 mps 752 mmHg 35%
    13:00 +22°C° 0 mm 1 mps 752 mmHg 34%
    14:00 +23°C° 0 mm 1 mps 751 mmHg 32%
    15:00 +22°C° 0 mm 1 mps 751 mmHg 35%
    16:00 +22°C° 0 mm 1 mps 751 mmHg 37%
    17:00 +22°C° 0 mm 1 mps 751 mmHg 39%
    18:00 +20°C° 0 mm 1 mps 750 mmHg 43%
    19:00 +18°C° 0 mm 1 mps 750 mmHg 47%
    20:00 +15°C° 0 mm 1 mps 750 mmHg 51%
    21:00 +15°C° 0 mm 1 mps 750 mmHg 53%
    22:00 +14°C° 0 mm 1 mps 750 mmHg 55%
    23:00 +14°C° 0 mm 1 mps 750 mmHg 57%

    Tomorrow, 25 April, Thursday

    Time Temperature Precipitation Wind Pressure Humidity
    00:00 +13°C° 0 mm 1 mps 750 mmHg 57%
    01:00 +12°C° 0 mm 0 mps 750 mmHg 57%
    02:00 +12°C° 0 mm 0 mps 751 mmHg 58%
    03:00 +12°C° 0 mm 0 mps 750 mmHg 59%
    04:00 +12°C° 0 mm 0 mps 750 mmHg 59%
    05:00 +12°C° 0 mm 0 mps 750 mmHg 60%
    06:00 +14°C° 0 mm 1 mps 750 mmHg 57%
    07:00 +16°C° 0 mm 1 mps 750 mmHg 54%
    08:00 +18°C° 0 mm 1 mps 750 mmHg 50%
    09:00 +19°C° 0 mm 1 mps 750 mmHg 46%
    10:00 +19°C° 0 mm 2 mps 750 mmHg 42%
    11:00 +21°C° 0 mm 2 mps 750 mmHg 38%
    12:00 +21°C° 0 mm 2 mps 750 mmHg 38%
    13:00 +21°C° 0 mm 2 mps 749 mmHg 38%
    14:00 +21°C° 0 mm 2 mps 749 mmHg 38%
    15:00 +20°C° 0 mm 2 mps 749 mmHg 40%
    16:00 +20°C° 0 mm 2 mps 748 mmHg 42%
    17:00 +21°C° 0 mm 1 mps 748 mmHg 44%
    18:00 +20°C° 0 mm 1 mps 748 mmHg 48%
    19:00 +18°C° 0 mm 1 mps 748 mmHg 51%
    20:00 +16°C° 0 mm 1 mps 748 mmHg 54%
    21:00 +15°C° 0 mm 2 mps 748 mmHg 56%
    22:00 +14°C° 0 mm 2 mps 748 mmHg 58%
    23:00 +14°C° 0 mm 2 mps 748 mmHg 61%

    Day after tomorrow, 26 April, Friday

    Time Temperature Precipitation Wind Pressure Humidity
    00:00 +13°C° 0 mm 2 mps 748 mmHg 61%
    01:00 +13°C° 0 mm 1 mps 748 mmHg 62%
    02:00 +12°C° 0 mm 1 mps 747 mmHg 63%
    03:00 +12°C° 0 mm 1 mps 747 mmHg 64%
    04:00 +11°C° 0 mm 1 mps 747 mmHg 65%
    05:00 +11°C° 0 mm 1 mps 747 mmHg 66%
    06:00 +13°C° 0 mm 2 mps 747 mmHg 62%
    07:00 +15°C° 0 mm 2 mps 747 mmHg 58%
    08:00 +17°C° 0 mm 2 mps 747 mmHg 53%
    09:00 +18°C° 0 mm 3 mps 747 mmHg 49%
    10:00 +19°C° 0 mm 3 mps 746 mmHg 45%
    11:00 +20°C° 0 mm 4 mps 746 mmHg 41%
    12:00 +20°C° 0 mm 4 mps 746 mmHg 42%
    13:00 +20°C° 0 mm 4 mps 746 mmHg 43%
    14:00 +20°C° 0 mm 4 mps 745 mmHg 43%
    15:00 +20°C° 0 mm 4 mps 745 mmHg 46%
    16:00 +20°C° 0 mm 3 mps 744 mmHg 49%
    17:00 +19°C° 0 mm 3 mps 744 mmHg 53%
    18:00 +18°C° 0 mm 3 mps 744 mmHg 56%
    19:00 +17°C° 0 mm 3 mps 744 mmHg 59%
    20:00 +14°C° 0 mm 3 mps 743 mmHg 63%
    21:00 +14°C° 0 mm 3 mps 743 mmHg 64%
    22:00 +14°C° 0 mm 3 mps 743 mmHg 64%
    23:00 +13°C° 0 mm 3 mps 743 mmHg 65%

    27 April, Saturday

    Time Temperature Precipitation Wind Pressure Humidity
    00:00 +12°C° 0 mm 3 mps 743 mmHg 68%
    01:00 +11°C° 0 mm 3 mps 742 mmHg 70%
    02:00 +11°C° 0 mm 3 mps 742 mmHg 73%
    03:00 +10°C° 0 mm 3 mps 742 mmHg 73%
    04:00 +10°C° 0 mm 3 mps 741 mmHg 73%
    05:00 +9°C° 0 mm 3 mps 741 mmHg 72%
    06:00 +11°C° 0 mm 3 mps 741 mmHg 69%
    07:00 +12°C° 0 mm 3 mps 741 mmHg 66%
    08:00 +13°C° 0 mm 3 mps 740 mmHg 63%
    09:00 +14°C° 0.1 mm 3 mps 740 mmHg 63%
    10:00 +16°C° 0.1 mm 3 mps 740 mmHg 64%
    11:00 +17°C° 0.1 mm 3 mps 740 mmHg 64%
    12:00 +17°C° 0.7 mm 3 mps 740 mmHg 67%
    13:00 +17°C° 0.7 mm 2 mps 739 mmHg 69%
    14:00 +17°C° 0.7 mm 2 mps 739 mmHg 72%
    15:00 +17°C° 0.5 mm 3 mps 739 mmHg 74%
    16:00 +17°C° 0.5 mm 3 mps 738 mmHg 77%
    17:00 +15°C° 0.5 mm 4 mps 738 mmHg 79%
    18:00 +14°C° 1.3 mm 4 mps 738 mmHg 83%
    19:00 +14°C° 1.3 mm 4 mps 738 mmHg 88%
    20:00 +13°C° 1.3 mm 3 mps 738 mmHg 92%
    21:00 +13°C° 0.7 mm 3 mps 738 mmHg 91%
    22:00 +12°C° 0.7 mm 3 mps 738 mmHg 91%
    23:00 +12°C° 0.7 mm 3 mps 738 mmHg 91%

    28 April, Sunday

    Time Temperature Precipitation Wind Pressure Humidity
    00:00 +12°C° 0.1 mm 3 mps 738 mmHg 91%
    01:00 +11°C° 0.1 mm 3 mps 738 mmHg 92%
    02:00 +11°C° 0.1 mm 3 mps 738 mmHg 92%
    03:00 +11°C° 0 mm 3 mps 738 mmHg 93%
    04:00 +10°C° 0 mm 3 mps 738 mmHg 93%
    05:00 +10°C° 0 mm 3 mps 738 mmHg 94%
    06:00 +11°C° 0 mm 3 mps 738 mmHg 89%
    07:00 +13°C° 0 mm 4 mps 739 mmHg 84%
    08:00 +15°C° 0 mm 4 mps 739 mmHg 79%
    09:00 +17°C° 0 mm 4 mps 739 mmHg 73%
    10:00 +17°C° 0 mm 5 mps 740 mmHg 67%
    11:00 +20°C° 0 mm 5 mps 740 mmHg 61%
    12:00 +20°C° 0 mm 5 mps 740 mmHg 59%
    13:00 +20°C° 0 mm 6 mps 740 mmHg 57%
    14:00 +21°C° 0 mm 6 mps 740 mmHg 55%
    15:00 +20°C° 0 mm 6 mps 741 mmHg 56%
    16:00 +19°C° 0 mm 6 mps 741 mmHg 58%
    17:00 +17°C° 0 mm 6 mps 741 mmHg 60%
    18:00 +16°C° 0 mm 6 mps 742 mmHg 62%
    19:00 +14°C° 0 mm 5 mps 742 mmHg 65%
    20:00 +13°C° 0 mm 5 mps 743 mmHg 67%
    21:00 +12°C° 0 mm 5 mps 743 mmHg 67%
    22:00 +10°C° 0 mm 5 mps 743 mmHg 66%
    23:00 +9°C° 0 mm 5 mps 744 mmHg 66%

    29 April, Monday

    Time Temperature Precipitation Wind Pressure Humidity
    00:00 +8°C° 0 mm 5 mps 744 mmHg 64%
    01:00 +7°C° 0 mm 5 mps 744 mmHg 63%
    02:00 +6°C° 0 mm 5 mps 745 mmHg 62%
    03:00 +5°C° 0 mm 5 mps 745 mmHg 63%
    04:00 +5°C° 0 mm 5 mps 745 mmHg 64%
    05:00 +3°C° 0 mm 5 mps 745 mmHg 65%
    06:00 +5°C° 0 mm 5 mps 746 mmHg 64%
    07:00 +6°C° 0 mm 5 mps 746 mmHg 62%
    08:00 +7°C° 0 mm 5 mps 746 mmHg 60%
    09:00 +9°C° 0 mm 5 mps 746 mmHg 56%
    10:00 +10°C° 0 mm 6 mps 746 mmHg 51%
    11:00 +11°C° 0 mm 6 mps 746 mmHg 47%
    12:00 +13°C° 0 mm 5 mps 746 mmHg 45%
    13:00 +13°C° 0 mm 5 mps 746 mmHg 44%
    14:00 +14°C° 0 mm 5 mps 746 mmHg 42%
    15:00 +14°C° 0 mm 5 mps 746 mmHg 44%
    16:00 +13°C° 0 mm 5 mps 746 mmHg 45%
    17:00 +13°C° 0 mm 4 mps 746 mmHg 46%
    18:00 +11°C° 0 mm 4 mps 746 mmHg 50%
    19:00 +10°C° 0 mm 4 mps 746 mmHg 55%
    20:00 +8°C° 0 mm 3 mps 746 mmHg 59%
    21:00 +7°C° 0 mm 3 mps 747 mmHg 60%
    22:00 +7°C° 0 mm 3 mps 747 mmHg 61%
    23:00 +5°C° 0 mm 3 mps 747 mmHg 62%
    Show more